Zurück zum Katalog

FENGYUN 1C DEB

AktivSSO
NORAD 32183·DEBRIS·🇨🇳 China

Gestartet May 10, 1999 von Taiyuan Satellite Launch Center

Loading…

Nächste Überflüge (nächste 24 Stunden)

TLE

AktuellSource: Space-Track

Epoche: Sep 12, 2026, 20:15 UTC

1 32183U 99025CUD 26255.84413836  .00000706  00000-0  41603-3 0  9999
2 32183  98.6836 303.1144 0041771   4.0251 356.1249 14.10659603766281

Verfolge FENGYUN 1C DEB in Echtzeit mit AllMySat

Download on the App Store